Location: Vulcan
(50.4000°N, 113.2500°W)
Time: 23:57:39
(UTC-06:00)

OTV 5 (USA 277) - Visible Passes

Search period start: 17 October 2019 00:00
Search period end: 27 October 2019 00:00
Orbit: 310 x 324 km, 54.5° (Epoch: 08 October)

Date Brightness Start Highest point End Pass type
(mag) Time Alt. Az. Time Alt. Az. Time Alt. Az.
17 Oct ? 05:56:07 46° E 05:56:07 46° E 05:58:13 10° ESE visible
18 Oct ? 06:10:32 46° SSE 06:10:32 46° SSE 06:12:43 10° SE visible
19 Oct ? 06:25:04 25° SSW 06:25:04 25° SSW 06:26:52 10° SSE visible
20 Oct ? 06:39:44 12° SSW 06:39:44 12° SSW 06:40:13 10° SSW visible
